Location: Bellerive
(46.9237°N, 7.0223°E)
Time: 23:08:12
(UTC+00:00)

Cosmos 1697 Rocket - Pass Details

Date: 09 April 2020
Orbit: 831 x 845 km, 71.0° (Epoch: 27 May)

Event Time Altitude Azimuth Distance (km) Brightness Sun altitude
Rises 21:06:36 0° 332° (NNW) 3,412 7.1 -26.2°
Reaches altitude 10° 21:09:03 10° 333° (NNW) 2,474 6.1 -26.4°
Maximum altitude 21:14:45 90° 260° (W) 851 2.6 -27.1°
Enters shadow 21:14:58 84° 156° (SSE) 856 2.5 -27.1°
